Dewpoint
12 11 13 13 9 9 10 10 10 11 12 13 15 16 16 16 17 18 19 19 20 17 15 15 15 16 16 16 16 22 30 34 35 36 38 38 43 49 53 57 57 60 60 62 64 64 64 67 68 68 68 69 70 71 71 71 71 72 71 71 71 71 71 70 68 68 66 66 68 67 68 67 69 68 69 69 69 68 68 68 68 69 70 70 70 70
14 12 11 8 8 10 9 11 14 15 16 15 15 16 16 17 17 18 18 18 18 17 14 17 14 16 16 17 25 27 30 35 38 41 44 44 44 49 55 56 56 61 60 63 67 66 66 66 69 69 69 69 70 71 71 71 71 72 72 72 71 71 71 70 70 68 68 68 67 67 67 67 66 67 67 68 69 70 69 70 69 69 69 70 70 71
16 10 8 10 12 11 13 12 14 16 16 16 16 17 17 15 18 18 16 16 16 14 15 14 14 15 16 24 23 25 28 34 37 39 41 44 44 44 48 54 58 59 61 63 64 64 64 66 68 69 69 69 70 71 71 72 72 72 72 72 72 71 71 70 71 70 68 69 69 69 69 69 69 69 70 68 69 70 70 71 71 70 70 70 69 70
15 7 9 13 12 11 13 14 15 17 17 16 16 17 17 16 17 16 15 16 16 15 13 14 11 18 18 25 29 32 31 36 37 38 41 42 45 47 46 49 52 52 57 61 63 64 64 66 68 69 69 69 70 70 71 71 71 72 72 73 72 72 72 71 71 71 70 71 72 71 70 70 70 70 71 71 70 70 70 71 71 70 71 70 69 69
8 14 14 11 12 12 15 16 16 17 17 16 16 16 15 16 16 17 15 16 17 15 14 12 12 17 17 19 24 34 36 36 38 40 42 43 42 44 45 48 49 50 54 56 59 64 65 66 68 69 69 70 70 70 70 71 72 72 72 73 73 72 73 72 71 72 72 70 69 68 67 68 69 71 71 71 70 70 71 71 72 71 71 71 70 70
10 12 16 15 15 15 18 17 17 17 16 15 17 16 16 16 17 17 18 15 13 15 12 12 13 15 22 22 25 32 34 36 38 40 43 45 47 46 44 47 48 48 52 55 57 57 63 66 67 69 70 70 70 70 70 71 72 73 72 73 73 73 73 72 73 72 72 70 69 68 67 67 67 67 68 67 69 69 70 70 73 72 71 71 71 70
11 16 14 12 15 16 16 17 18 18 16 17 15 17 16 16 17 17 17 14 15 19 12 13 13 15 20 22 29 33 31 33 36 39 40 44 46 46 47 48 48 47 48 54 56 54 57 63 65 68 69 69 69 70 71 71 71 72 73 73 73 73 73 73 72 73 71 70 70 69 68 69 69 68 68 68 70 70 70 71 72 71 71 70 71 71
17 16 15 15 16 16 17 18 18 18 16 16 17 17 16 16 16 16 16 15 13 14 14 14 12 16 19 24 32 31 31 31 33 33 37 39 45 47 49 50 53 52 53 51 53 56 59 60 63 66 68 69 68 70 69 69 70 70 71 72 73 73 73 74 71 71 72 70 70 70 69 68 68 68 67 69 69 70 69 68 69 69 70 70 70 72
17 16 16 17 18 17 17 17 18 18 16 16 17 17 16 15 16 16 14 13 11 13 14 12 14 16 15 28 31 29 28 30 29 30 32 35 39 42 46 48 52 53 55 56 55 58 61 63 63 65 66 68 68 69 70 69 68 70 71 71 71 71 71 72 70 71 72 71 69 66 67 68 66 67 67 68 68 68 67 67 67 67 68 69 70 69
21 22 18 18 18 17 17 19 18 18 17 19 17 16 17 16 16 14 12 11 16 17 16 12 11 13 15 22 26 28 28 29 29 27 25 30 35 37 41 45 49 51 54 55 57 60 62 64 65 66 67 67 68 69 69 69 69 70 71 71 71 70 70 71 71 71 71 71 68 66 66 66 65 66 66 67 67 67 67 66 66 67 67 67 67 69
20 28 28 19 19 19 19 18 18 18 18 17 16 15 15 14 15 16 15 14 17 17 15 11 13 11 14 23 26 28 29 29 27 26 26 27 33 34 38 38 42 45 49 52 55 59 63 65 66 66 67 67 69 69 68 67 68 70 70 70 70 71 70 71 72 72 71 70 68 65 67 67 66 65 65 65 65 65 66 65 66 67 66 66 67 67
20 21 21 20 23 21 19 18 18 19 17 17 16 14 13 18 19 22 19 18 17 14 14 12 14 12 12 25 23 26 24 24 26 25 27 28 32 33 36 35 37 40 43 48 53 57 62 65 66 66 66 66 67 67 67 68 68 69 70 70 70 70 71 71 71 72 70 70 69 68 68 67 66 66 65 65 65 65 65 65 65 65 65 65 67 65
20 19 20 20 28 20 19 16 16 17 17 16 15 15 16 24 19 16 19 18 15 15 14 14 13 12 16 27 21 20 18 23 27 24 29 32 35 37 33 36 37 38 40 44 47 55 61 64 64 65 66 66 66 67 67 68 69 69 69 69 69 70 70 71 70 72 71 71 70 68 68 68 67 67 66 66 66 66 66 66 66 65 64 64 64 63
19 19 20 19 21 23 19 15 16 14 15 15 16 18 22 16 18 18 18 20 15 12 15 14 14 14 25 23 22 21 21 22 30 34 37 36 39 37 32 34 34 38 39 43 47 51 57 62 63 63 64 65 66 66 67 68 68 69 69 69 69 69 70 71 71 69 71 70 69 69 69 68 68 68 67 67 66 66 66 67 67 65 64 64 63 63
19 19 17 18 18 21 20 18 18 15 16 15 14 13 19 21 17 17 15 14 16 20 16 16 14 22 22 26 20 22 22 26 31 32 37 37 36 38 34 35 36 39 41 43 48 51 54 58 62 64 64 65 66 67 67 68 68 68 68 68 69 69 69 70 71 70 69 70 69 69 69 69 66 68 67 67 66 66 66 67 67 66 65 64 64 63
17 22 21 22 23 21 20 21 20 18 16 16 16 15 16 18 20 17 26 21 20 17 18 19 22 27 24 24 22 23 23 29 33 35 37 37 37 38 37 40 41 41 42 43 48 52 55 57 60 63 65 66 66 67 67 67 68 68 68 69 69 68 69 70 70 70 67 67 67 67 66 66 66 66 66 65 66 66 66 67 66 66 66 65 64 64
20 35 22 22 24 23 23 24 22 20 24 20 16 17 20 21 17 24 30 31 31 22 16 26 23 24 27 25 24 28 27 26 30 32 35 37 38 42 43 42 43 43 44 46 47 50 54 55 58 59 62 64 66 66 67 67 68 68 68 68 68 68 68 69 69 70 70 66 66 65 65 66 66 66 65 64 66 67 66 67 67 66 66 66 65 64
28 23 22 21 21 23 26 24 23 22 20 20 18 17 20 20 22 25 18 22 19 16 22 24 22 24 22 25 24 28 28 28 29 29 32 39 39 40 42 44 44 45 46 46 47 50 51 53 55 57 58 60 64 65 66 66 67 67 68 68 68 68 68 68 68 67 66 64 64 64 64 64 65 65 65 66 66 66 66 67 66 66 66 65 65 65
24 21 21 23 23 24 25 24 22 21 21 19 18 19 16 23 22 23 23 20 19 18 21 21 18 22 21 27 27 28 29 31 30 30 32 35 39 40 42 44 46 47 47 46 46 48 50 51 51 55 55 56 59 62 63 64 65 65 66 66 66 66 67 67 67 67 65 64 64 64 64 63 62 64 65 65 65 65 65 65 65 65 65 66 65 64
26 23 23 23 22 24 23 21 20 23 21 21 20 18 19 24 26 23 26 22 21 18 20 18 16 22 22 32 30 31 34 34 31 31 34 36 39 41 43 43 43 45 48 46 46 47 49 50 49 50 52 51 54 57 60 62 63 64 64 64 64 64 64 65 66 64 64 64 63 64 64 62 61 61 61 63 64 64 64 64 64 64 64 63 62 62
30 36 21 24 24 22 24 23 24 24 24 21 21 24 20 25 24 23 29 21 20 20 17 16 16 25 30 29 31 31 32 34 35 33 35 37 40 42 44 46 46 46 48 48 47 46 47 49 50 49 50 49 51 55 56 58 59 59 60 61 62 62 63 63 64 63 63 63 62 63 63 63 62 62 60 61 62 63 64 64 64 64 64 61 61 60
28 28 22 25 24 22 22 26 26 26 26 25 24 23 21 24 25 21 20 21 19 21 21 17 18 24 28 26 29 30 31 30 30 34 36 38 41 45 45 48 48 47 47 48 48 48 47 48 48 46 46 49 51 52 53 54 56 57 58 57 59 59 58 59 60 61 60 61 62 62 62 62 62 61 61 61 61 62 62 62 63 64 62 61 60 60
40 33 28 26 25 23 24 25 27 24 25 23 22 26 23 28 28 24 18 21 22 18 20 22 22 28 29 29 30 30 30 30 33 34 37 38 40 42 43 45 47 47 46 46 47 46 46 47 47 46 47 48 49 50 51 51 51 53 54 54 56 57 58 58 58 58 59 60 61 61 61 60 61 61 61 62 62 61 59 59 61 61 61 60 60 61
47 30 29 20 22 23 25 25 26 24 24 21 21 22 21 24 24 28 29 33 26 25 24 20 22 26 33 31 32 32 32 35 36 37 40 40 40 41 42 43 44 45 45 45 45 46 45 45 45 43 44 43 45 48 48 48 47 50 51 52 53 54 55 56 56 56 57 57 59 60 61 60 60 61 61 60 60 60 59 59 58 58 59 59 59 59
28 33 26 22 24 25 25 25 24 22 22 23 22 22 19 19 22 25 25 33 24 24 23 24 19 23 37 34 32 31 33 35 35 36 40 39 41 41 41 42 42 44 43 43 45 45 44 43 40 40 39 38 39 40 46 46 47 47 50 51 52 52 54 54 55 55 56 57 57 58 59 60 59 59 59 59 59 60 59 59 59 58 57 57 57 57
28 31 26 20 20 20 23 22 23 25 25 27 22 16 15 16 22 27 24 27 24 28 25 25 24 30 35 36 34 35 37 38 39 39 40 41 43 42 41 42 42 42 42 42 43 43 44 41 39 41 42 38 39 37 38 41 43 45 47 50 52 50 51 52 53 53 54 55 56 55 56 56 58 58 59 58 58 59 59 58 58 57 57 56 55 56
34 34 31 29 26 23 20 17 22 25 26 24 24 21 15 17 15 20 24 21 21 28 29 29 25 33 33 32 32 33 34 39 40 39 38 38 40 41 42 41 41 40 40 39 41 41 41 41 41 40 40 38 37 38 36 36 40 42 45 47 49 49 52 51 52 51 52 53 54 52 54 54 55 56 58 58 58 58 57 58 58 56 55 55 55 54
28 22 27 29 25 16 13 21 16 18 23 20 20 22 16 14 19 22 20 18 24 20 15 20 22 24 27 30 32 35 34 38 40 40 40 40 40 39 38 38 38 35 36 36 38 38 38 39 40 43 43 43 38 38 36 34 36 37 43 44 45 47 50 52 51 49 50 51 51 51 52 53 54 55 55 55 56 55 56 55 56 55 56 55 55 55
23 17 23 24 19 12 9 18 21 20 15 18 17 19 22 18 20 23 22 16 22 17 14 23 24 24 21 31 33 34 32 35 38 40 40 40 37 38 38 35 33 33 33 32 36 37 39 40 41 44 43 42 41 40 38 35 35 38 40 41 43 45 47 48 49 47 48 49 50 50 51 52 53 53 53 53 53 54 54 53 53 52 52 53 53 53
28 12 23 14 19 10 12 4 11 10 12 13 5 4 7 10 18 19 16 13 13 18 14 11 12 20 15 23 33 36 36 38 40 40 39 36 36 37 34 34 31 28 27 28 30 32 34 35 36 37 38 39 37 39 38 37 37 35 37 40 42 44 47 46 48 47 46 46 47 48 48 49 51 51 51 51 52 52 52 51 52 52 50 50 50 51
36 25 33 17 16 17 13 9 8 4 6 9 3 3 1 6 6 8 13 18 21 17 12 14 18 17 19 28 33 38 38 37 39 37 36 38 35 36 33 29 30 28 25 27 30 31 33 35 35 36 36 35 35 34 33 36 37 37 37 38 40 42 44 43 46 45 46 45 45 46 47 48 49 49 49 50 50 51 49 50 52 51 51 51 51 51
28 27 28 23 14 17 15 9 4 4 11 9 9 7 3 6 13 11 15 18 22 22 23 24 20 15 30 35 38 40 40 38 39 40 39 36 34 34 31 29 28 29 28 27 28 29 31 30 32 32 34 34 34 33 31 33 34 34 35 37 39 41 43 45 45 45 45 45 45 44 44 46 47 47 47 49 47 49 49 50 50 49 50 52 51 52
25 23 20 19 14 14 17 7 10 15 16 15 19 15 6 5 3 6 9 17 22 25 21 17 15 37 38 38 37 40 39 38 40 38 37 35 33 30 29 28 27 27 28 29 30 31 29 29 30 33 36 34 33 35 34 31 31 35 38 38 41 43 44 44 43 43 44 43 43 42 45 44 45 46 46 46 48 49 50 49 49 49 49 49 50 49
28 27 19 23 15 14 17 18 19 17 8 5 34 29 20 18 11 12 16 22 26 25 18 28 31 38 39 36 36 39 39 38 40 40 38 38 36 33 30 28 28 29 31 31 31 30 31 33 34 35 36 38 37 34 37 39 38 38 40 41 43 44 44 42 42 43 43 42 42 42 43 44 44 46 47 48 47 48 47 46 46 47 47 47 47 47
29 26 20 23 17 13 23 22 13 13 11 38 32 30 26 24 20 15 14 14 22 24 28 27 32 35 36 36 38 40 40 39 40 38 39 36 37 35 32 28 29 30 31 33 33 34 37 38 36 37 39 37 36 41 39 35 35 38 36 37 39 40 41 43 43 44 44 43 42 42 42 43 44 45 46 46 46 47 45 45 46 45 45 45 44 44
25 24 21 20 24 20 18 14 9 5 24 28 30 31 34 28 29 26 25 22 27 29 30 27 35 36 37 36 37 38 37 37 36 36 38 39 36 33 31 32 33 34 34 34 36 37 37 34 38 39 41 41 39 36 35 38 40 40 40 42 41 42 42 41 41 41 42 42 43 42 41 42 42 44 43 43 43 43 43 43 44 43 44 43 43 43
29 25 22 18 21 15 13 11 10 18 21 24 23 28 28 24 28 24 13 18 27 32 33 31 36 36 36 36 37 36 37 35 33 32 34 35 32 31 32 32 33 33 32 34 33 33 35 35 35 38 40 39 38 37 40 41 41 42 41 42 43 42 43 42 41 40 42 41 41 40 41 42 41 43 43 43 42 41 42 42 42 42 41 41 41 40
27 24 24 19 20 18 7 6 9 10 11 13 24 34 37 40 39 38 27 22 38 37 36 36 37 36 36 36 37 39 39 34 31 30 35 31 30 29 30 30 31 31 30 30 30 30 32 33 34 37 37 40 41 42 42 42 40 40 41 41 42 41 41 40 40 40 40 40 39 40 40 40 39 40 40 41 40 41 42 42 42 42 42 41 40 40
26 27 24 17 15 16 13 9 8 9 14 30 34 35 35 35 34 38 22 10 36 38 37 37 37 36 36 36 40 38 34 28 26 27 34 33 33 33 32 30 28 30 31 28 28 29 31 35 37 37 38 40 40 40 41 41 42 40 40 40 40 40 40 40 39 39 39 39 39 39 40 40 40 40 41 40 41 43 42 41 41 41 41 41 40 40
29 24 25 21 18 16 14 8 6 12 11 31 35 32 31 35 36 32 18 14 40 40 38 38 37 38 38 40 38 35 31 27 24 30 34 34 33 33 32 32 32 30 29 29 29 33 35 37 37 36 36 37 39 41 40 41 40 41 41 40 40 41 40 40 40 39 40 40 40 41 40 41 41 43 44 42 42 42 42 42 41 41 41 41 38 37
25 22 19 17 12 14 18 10 8 12 35 35 33 33 32 37 34 19 11 27 39 38 38 39 39 38 37 38 36 30 31 31 32 34 33 32 31 30 30 31 30 29 29 30 31 36 33 32 32 33 36 35 38 38 39 39 40 40 40 41 41 41 42 42 43 42 41 42 41 40 39 41 42 43 44 43 42 42 41 41 40 41 40 40 39 39
23 23 20 20 13 10 13 11 9 16 31 34 32 31 35 33 18 13 31 39 37 36 36 35 35 34 35 36 35 32 31 32 34 33 32 32 31 29 26 25 25 24 26 31 34 35 34 31 35 36 36 37 37 39 39 39 40 40 41 42 42 42 42 42 42 43 42 40 40 40 41 42 43 44 44 43 42 42 41 41 41 39 39 38 39 40
19 17 14 16 17 14 17 14 12 11 31 34 35 32 36 24 20 29 33 31 30 30 29 30 31 31 32 33 35 35 34 33 33 33 31 30 28 26 27 26 29 29 29 31 32 31 31 33 34 34 38 38 39 39 39 41 41 40 41 42 43 42 42 42 42 41 40 39 39 41 42 42 43 43 43 42 42 41 41 41 40 40 40 40 39 37
20 13 6 10 16 8 12 14 13 21 30 35 30 24 32 30 28 31 29 27 29 27 28 29 30 32 33 33 32 32 33 32 31 31 29 28 28 30 30 31 30 29 29 29 30 32 35 36 36 37 39 38 39 40 41 42 40 40 41 42 42 42 42 41 41 40 40 41 41 41 40 39 40 41 41 41 41 41 41 40 40 39 38 37 35 34
23 18 24 15 20 16 8 13 30 29 32 33 33 35 34 32 31 31 31 28 28 28 30 26 28 30 31 31 31 31 29 30 29 28 28 30 30 30 31 32 32 32 33 34 33 35 36 34 37 37 38 38 41 41 40 40 40 41 42 42 41 40 40 40 40 41 41 42 42 42 41 40 40 40 40 41 41 40 39 39 39 36 35 35 35 36
32 33 34 25 21 30 30 33 34 31 33 35 33 33 32 32 30 31 30 28 28 28 29 28 29 29 29 29 27 27 27 28 29 29 30 30 30 31 33 33 33 34 34 33 34 34 34 34 36 37 38 39 40 40 41 40 41 41 42 41 42 41 41 40 40 40 40 39 40 40 40 41 41 41 40 40 39 39 38 38 36 34 35 36 37 38
30 29 27 18 26 23 19 31 29 30 32 32 30 30 32 31 30 29 30 29 28 28 28 29 29 30 30 29 29 28 28 29 29 30 31 30 31 32 33 33 35 35 35 34 36 37 36 36 36 37 39 40 40 40 40 42 41 41 41 41 41 41 41 39 40 41 41 41 40 40 40 41 39 38 39 39 37 36 36 34 35 37 37 37 37 38
25 30 24 22 27 21 21 29 30 32 32 32 30 29 28 28 28 28 28 28 28 29 29 29 29 29 28 28 29 29 30 31 31 31 30 30 31 32 32 33 34 35 36 37 38 38 38 38 38 39 40 40 40 41 41 40 40 40 41 41 41 40 39 40 41 40 40 40 40 38 37 37 39 38 37 36 36 35 35 38 38 38 38 39 39 39
27 27 18 23 24 22 28 27 27 30 31 31 29 28 29 28 27 27 27 28 28 27 27 27 29 28 28 28 30 30 30 30 31 32 32 32 32 33 33 34 35 36 37 37 38 39 39 39 40 42 43 42 41 41 40 40 41 40 42 43 41 40 40 41 40 39 38 37 36 37 36 38 38 37 37 36 37 37 38 38 39 39 39 39 41 42
26 21 24 25 23 21 21 24 28 23 22 26 31 31 29 28 28 29 29 28 28 28 29 29 29 29 29 31 32 31 31 30 31 32 33 32 33 34 35 35 35 36 37 38 39 40 41 42 44 45 44 43 41 40 39 40 39 40 40 40 40 41 40 40 39 38 36 35 36 36 38 38 37 37 37 37 37 37 39 38 38 38 38 38 38 38
23 25 23 22 18 16 22 25 29 28 27 27 28 28 27 27 27 27 27 28 28 29 28 28 28 29 30 31 31 31 31 32 33 33 33 33 33 34 35 36 37 37 37 39 39 40 41 43 44 45 44 42 40 39 38 38 38 38 40 39 40 39 39 38 37 35 35 36 37 37 37 37 37 37 37 37 38 38 37 38 37 37 37 38 40 37